User: anonymous   Login
Location: Cronhütte
(48.9135°N, 9.6869°E)
Time: 16:26:42
(UTC+00:00)
Language:

YAOGAN 6 - Orbit

View from above orbital plane
View from above orbital plane
View from above satellite
View from above satellite

Ground track
Ground track

The orbit data is extracted from the following two-line orbital elements,

1 34839U 09021A   24200.18788423  .00030398  00000-0  54786-3 0  9994
2 34839  97.1708 167.4748 0018941  70.1673 290.1618 15.49531495848255
Epoch (UTC): 18 July 2024 04:30:33
Eccentricity: 0.0018941
inclination: 97.1708°
perigee height: 405 km
apogee height: 431 km
right ascension of ascending node: 167.4748°
argument of perigee: 70.1673°
revolutions per day: 15.49531495
mean anomaly at epoch: 290.1618°
orbit number at epoch: 84825

The dashed part of the orbit path shows where the satellite is in the earth's shadow,  

DLR